Date String (YYYY-MM-DD hh:mm:ss) UTC,Instrument flags,Ambient pressure (hPa),Sample flow (lpm),Bypass flow (lpm),Sample temperature (°C),Ambient temperature (°C),ASC tube jacket temperature (°C),LED temperature (°C),Box temperature (°C),Sample RH (%),Span deviation,Mass concentration (μg/m³),Mass concentration (μg/m³),Mass concentration (μg/m³)
DateTimeUTC,F1_M11,P_M11,Q1_M11,Q2_M11,T1_M11,T2_M11,T3_M11,T4_M11,T5_M11,U1_M11,ZSPAN_M11,X0_M11,X2_M11,X1_M11
2022-05-17 06:00:00,,0822.2,5.00,0.00,29.7,28.5,00.0,38.6,31.5,13.1,0000.0,0010.72,0003.78,0002.77
2022-05-17 06:01:00,,0822.2,5.00,0.00,29.7,28.5,00.0,38.6,31.4,13.1,0000.0,0011.66,0003.82,0002.79
2022-05-17 06:02:00,,0822.2,5.01,0.00,29.7,28.6,00.0,38.6,31.4,13.0,0000.0,0012.24,0003.85,0002.80
2022-05-17 06:03:00,,0822.2,5.00,0.00,29.7,28.6,00.0,38.6,31.5,12.9,0000.0,0012.23,0003.86,0002.80
2022-05-17 06:04:00,,0822.2,4.98,0.00,29.7,28.6,00.0,38.7,31.5,12.9,0000.0,0012.29,0003.84,0002.79
2022-05-17 06:05:00,,0822.3,5.00,0.00,29.7,28.6,00.0,38.7,31.5,12.8,0000.0,0011.72,0003.86,0002.78
2022-05-17 06:06:00,,0822.3,5.00,0.00,29.7,28.7,00.0,38.7,31.5,12.9,0000.0,0011.39,0003.86,0002.75
2022-05-17 06:07:00,,0822.3,5.00,0.00,29.7,28.7,00.0,38.7,31.5,12.9,0000.0,0011.42,0003.90,0002.75
2022-05-17 06:08:00,,0822.3,5.01,0.00,29.8,28.7,00.0,38.7,31.6,12.9,0000.0,0011.93,0003.88,0002.74
2022-05-17 06:09:00,,0822.3,5.00,0.00,29.8,28.7,00.0,38.7,31.6,13.6,0000.0,0011.97,0003.87,0002.75
2022-05-17 06:10:00,,0822.3,5.00,0.00,29.8,28.7,00.0,38.7,31.6,13.8,0000.0,0011.77,0003.82,0002.73
2022-05-17 06:11:00,,0822.3,5.01,0.00,29.8,28.7,00.0,38.8,31.6,13.2,0000.0,0011.29,0003.82,0002.73
2022-05-17 06:12:00,,0822.3,5.00,0.00,29.8,28.6,00.0,38.8,31.5,13.2,0000.0,0010.29,0003.79,0002.72
2022-05-17 06:13:00,,0822.3,5.00,0.00,29.8,28.6,00.0,38.8,31.6,12.8,0000.0,0009.51,0003.78,0002.74
2022-05-17 06:14:00,,0822.3,4.99,0.00,29.8,28.6,00.0,38.8,31.6,12.7,0000.0,0009.49,0003.82,0002.76
2022-05-17 06:15:00,,0822.3,4.99,0.00,29.8,28.6,00.0,38.8,31.6,12.7,0000.0,0009.74,0003.84,0002.78
2022-05-17 06:16:00,,0822.2,5.00,0.00,29.8,28.7,00.0,38.8,31.6,12.6,0000.0,0009.67,0003.81,0002.78
2022-05-17 06:17:00,,0822.1,5.01,0.00,29.9,28.7,00.0,38.8,31.7,12.5,0000.0,0009.43,0003.79,0002.80
2022-05-17 06:18:00,,0822.1,5.00,0.00,29.9,28.7,00.0,38.8,31.7,12.5,0000.0,0008.98,0003.76,0002.78
2022-05-17 06:19:00,,0822.1,4.99,0.00,29.9,28.8,00.0,38.8,31.7,12.5,0000.0,0008.50,0003.76,0002.78
2022-05-17 06:20:00,,0822.1,5.01,0.00,29.9,28.3,00.0,38.8,31.6,12.4,0000.0,0008.19,0003.79,0002.79
2022-05-17 06:21:00,,0822.1,5.00,0.00,29.8,25.9,00.0,38.8,31.2,12.5,0000.0,0008.28,0003.80,0002.78
2022-05-17 06:22:00,,0822.1,5.01,0.00,29.7,25.2,00.0,38.7,31.0,12.6,0000.0,0008.28,0003.76,0002.76
2022-05-17 06:23:00,,0822.2,5.00,0.00,29.5,25.4,00.0,38.7,30.9,12.7,0000.0,0009.12,0003.75,0002.76
2022-05-17 06:24:00,,0822.3,4.99,0.00,29.4,25.8,00.0,38.7,30.9,12.9,0000.0,0009.23,0003.78,0002.75
2022-05-17 06:25:00,,0822.4,5.00,0.00,29.4,26.3,00.0,38.6,30.9,13.1,0000.0,0009.29,0003.75,0002.74
2022-05-17 06:26:00,,0822.4,5.00,0.00,29.4,26.6,00.0,38.6,31.0,13.7,0000.0,0008.85,0003.73,0002.74
2022-05-17 06:27:00,,0822.5,5.00,0.00,29.4,26.9,00.0,38.6,31.0,13.9,0000.0,0008.73,0003.76,0002.75
2022-05-17 06:28:00,,0822.5,5.00,0.00,29.4,27.2,00.0,38.6,31.0,13.7,0000.0,0009.15,0003.75,0002.73
2022-05-17 06:29:00,,0822.4,5.01,0.00,29.4,27.4,00.0,38.5,31.0,13.5,0000.0,0009.14,0003.72,0002.72
2022-05-17 06:30:00,,0822.4,4.99,0.00,29.4,27.5,00.0,38.5,31.1,13.3,0000.0,0009.95,0003.72,0002.72
2022-05-17 06:31:00,,0822.4,5.00,0.00,29.4,27.7,00.0,38.5,31.1,13.0,0000.0,0010.58,0003.74,0002.71
2022-05-17 06:32:00,,0822.3,5.01,0.00,29.4,27.8,00.0,38.5,31.2,13.3,0000.0,0010.69,0003.73,0002.71
2022-05-17 06:33:00,,0822.3,5.00,0.00,29.4,27.9,00.0,38.5,31.2,13.3,0000.0,0010.69,0003.76,0002.72
2022-05-17 06:34:00,,0822.3,5.00,0.00,29.4,28.0,00.0,38.5,31.2,13.0,0000.0,0010.24,0003.79,0002.73
2022-05-17 06:35:00,,0822.3,5.00,0.00,29.4,28.1,00.0,38.5,31.2,12.9,0000.0,0010.24,0003.80,0002.72
2022-05-17 06:36:00,,0822.3,4.99,0.00,29.4,28.2,00.0,38.5,31.2,13.0,0000.0,0010.32,0003.79,0002.73
2022-05-17 06:37:00,,0822.3,4.99,0.00,29.5,28.2,00.0,38.5,31.2,13.3,0000.0,0010.59,0003.80,0002.73
2022-05-17 06:38:00,,0822.4,5.01,0.00,29.5,28.2,00.0,38.5,31.3,13.4,0000.0,0010.51,0003.77,0002.72
2022-05-17 06:39:00,,0822.5,5.01,0.00,29.5,28.3,00.0,38.5,31.3,13.5,0000.0,0010.09,0003.72,0002.72
2022-05-17 06:40:00,,0822.5,5.00,0.00,29.5,28.3,00.0,38.5,31.3,13.4,0000.0,0009.89,0003.76,0002.73
2022-05-17 06:41:00,,0822.5,5.00,0.00,29.5,28.4,00.0,38.5,31.3,13.7,0000.0,0009.49,0003.78,0002.75
2022-05-17 06:42:00,,0822.6,4.99,0.00,29.5,28.4,00.0,38.5,31.3,13.8,0000.0,0008.76,0003.76,0002.77
2022-05-17 06:43:00,,0822.5,5.01,0.00,29.6,28.4,00.0,38.6,31.4,13.7,0000.0,0008.83,0003.75,0002.77
2022-05-17 06:44:00,,0822.5,5.00,0.00,29.6,28.4,00.0,38.6,31.4,13.7,0000.0,0009.11,0003.77,0002.79
2022-05-17 06:45:00,,0822.6,4.99,0.00,29.6,28.5,00.0,38.6,31.4,13.6,0000.0,0009.23,0003.81,0002.79
2022-05-17 06:46:00,,0822.6,4.98,0.00,29.6,28.5,00.0,38.6,31.4,13.4,0000.0,0009.22,0003.80,0002.81
2022-05-17 06:47:00,,0822.5,5.00,0.00,29.6,28.5,00.0,38.6,31.4,13.3,0000.0,0009.17,0003.79,0002.81
2022-05-17 06:48:00,,0822.5,5.00,0.00,29.6,28.5,00.0,38.6,31.5,13.2,0000.0,0008.75,0003.81,0002.81
2022-05-17 06:49:00,,0822.5,5.01,0.00,29.7,28.6,00.0,38.6,31.5,13.2,0000.0,0008.79,0003.79,0002.81
2022-05-17 06:50:00,,0822.5,5.00,0.00,29.7,28.6,00.0,38.6,31.5,13.2,0000.0,0009.08,0003.82,0002.81
2022-05-17 06:51:00,,0822.5,4.98,0.00,29.7,28.6,00.0,38.7,31.5,13.2,0000.0,0009.19,0003.86,0002.83
2022-05-17 06:52:00,,0822.5,5.01,0.00,29.7,28.6,00.0,38.7,31.5,13.2,0000.0,0009.15,0003.86,0002.83
2022-05-17 06:53:00,,0822.5,5.00,0.00,29.7,28.6,00.0,38.7,31.5,13.2,0000.0,0009.33,0003.86,0002.83
2022-05-17 06:54:00,,0822.5,5.01,0.00,29.7,28.6,00.0,38.7,31.5,13.1,0000.0,0009.04,0003.85,0002.83
2022-05-17 06:55:00,,0822.5,4.99,0.00,29.7,28.6,00.0,38.7,31.6,13.0,0000.0,0008.90,0003.88,0002.83
2022-05-17 06:56:00,,0822.5,4.99,0.00,29.8,28.6,00.0,38.7,31.6,13.0,0000.0,0008.75,0003.86,0002.83
2022-05-17 06:57:00,,0822.5,5.00,0.00,29.8,28.6,00.0,38.7,31.6,13.6,0000.0,0008.40,0003.82,0002.83
2022-05-17 06:58:00,,0822.5,5.00,0.00,29.8,28.6,00.0,38.8,31.6,13.6,0000.0,0008.38,0003.81,0002.82
2022-05-17 06:59:00,,0822.5,5.00,0.00,29.8,28.6,00.0,38.8,31.6,13.8,0000.0,0008.56,0003.84,0002.82
